Location: ??????
(55.2000°N, 38.3000°E)
Time: 17:24:53
(UTC+00:00)

Cosmos 2237 Rocket - Pass Details

Date: 15 November 2025
Orbit: 835 x 847 km, 71.0° (Epoch: 14 December)

Event Time Altitude Azimuth Distance (km) Brightness Sun altitude
Exits shadow 00:13:46 17° 105° (ESE) 2,012 4.5 -39.7°
Maximum altitude 00:14:15 17° 99° (E) 2,003 4.5 -39.7°
Drops below altitude 10° 00:17:46 10° 60° (ENE) 2,465 5.3 -39.2°
Sets 00:21:01 0° 41° (NE) 3,403 6.1 -38.8°
